This demonstration page uses our WeatherBlox Daily Observations layout. Learn more.

Left ArrowRight Arrow

44.89941, -97.11507

Hourly Observations for January 17, 2021

Temp ( °F °C ) Dew Point ( °F °C ) Humidity (%) Winds ( mph kmh ) Pressure ( in mb ) Visibility ( mi km ) Precip ( " mm )
12:53 am 00:53 Mostly Cloudy 26 -3.3 21 -6.1 81 81 NW 14 22 29.85 1011 10 16 0.00 0.00
1:53 am 01:53 Cloudy 28 -2.2 22 -5.6 78 78 NW 15 24 29.85 1011 10 16 0.00 0.00
2:53 am 02:53 Mostly Clear 25 -3.9 21 -6.1 85 85 NW 14 22 29.86 1011 10 16 0.00 0.00
3:53 am 03:53 Mostly Cloudy 24 -4.4 20 -6.7 84 84 NW 13 20 29.86 1011 10 16 0.00 0.00
4:53 am 04:53 Clear 23 -5 20 -6.7 88 88 NW 10 17 29.86 1011 10 16 0.00 0.00
5:53 am 05:53 Clear 23 -5 20 -6.7 88 88 NW 13 20 29.88 1012 10 16 0.00 0.00
6:53 am 06:53 Clear 22 -5.6 19 -7.2 89 89 NW 13 20 29.89 1012 10 16 0.00 0.00
7:53 am 07:53 Mostly Clear 22 -5.6 20 -6.7 92 92 NW 10 17 29.90 1012 10 16 0.00 0.00
8:53 am 08:53 Cloudy 25 -3.9 22 -5.6 88 88 NW 14 22 29.90 1013 10 16 0.00 0.00
9:53 am 09:53 Cloudy 27 -2.8 24 -4.4 89 89 NW 16 26 29.91 1013 10 16 0.00 0.00
10:53 am 10:53 Cloudy 28 -2.2 24 -4.4 85 85 NW 14 22 29.90 1013 10 16 0.00 0.00
11:09 am 11:09 Cloudy 29 -1.7 25 -3.9 85 85 NW 14 22 29.92 1013 10 16 0.00 0.00
11:53 am 11:53 Mostly Cloudy 30 -1.1 24 -4.4 79 79 NW 17 28 29.88 1012 10 16 0.00 0.00
12:08 pm 12:08 Cloudy 30 -1.1 25 -3.9 82 82 NW 15 24 29.90 1012 10 16 0.00 0.00
12:30 pm 12:30 Mostly Cloudy 31 -0.6 25 -3.9 79 79 NNW 16 26 29.89 1012 10 16 0.00 0.00
12:53 pm 12:53 Cloudy 30 -1.1 25 -3.9 82 82 NW 16 26 29.87 1012 10 16 0.00 0.00
1:53 pm 13:53 Cloudy 30 -1.1 24 -4.4 79 79 NW 18 30 29.86 1011 10 16 0.00 0.00
2:53 pm 14:53 Cloudy 30 -1.1 24 -4.4 79 79 NW 15 24 29.87 1011 10 16 0.00 0.00
3:53 pm 15:53 Cloudy 29 -1.7 24 -4.4 82 82 NNW 13 20 29.87 1011 10 16 0.00 0.00
4:53 pm 16:53 Cloudy 29 -1.7 24 -4.4 82 82 NNW 9 15 29.87 1011 10 16 0.00 0.00
5:23 pm 17:23 Cloudy 28 -2.2 25 -3.9 88 88 N 9 15 29.89 1012 10 16 0.00 0.00
5:53 pm 17:53 Cloudy 28 -2.2 25 -3.9 88 88 NNW 10 17 29.87 1012 10 16 0.00 0.00
6:38 pm 18:38 Cloudy 27 -2.8 24 -4.4 89 89 NNW 8 13 29.91 1013 10 16 0.00 0.00
6:48 pm 18:48 Cloudy 27 -3 25 -4 93 93 NNW 8 13 29.90 1013 10 16 0.00 0.00
6:53 pm 18:53 Cloudy 27 -2.8 24 -4.4 89 89 NNW 8 13 29.87 1012 10 16 0.00 0.00
7:05 pm 19:05 Cloudy 27 -2.8 24 -4.4 89 89 NNW 8 13 29.90 1012 10 16 0.00 0.00
7:21 pm 19:21 Cloudy 27 -2.8 24 -4.4 89 89 NNW 7 11 29.90 1012 10 16 0.00 0.00
7:53 pm 19:53 Cloudy 26 -3.3 24 -4.4 92 92 N 5 7 29.87 1012 10 16 0.00 0.00
8:53 pm 20:53 Cloudy 25 -3.9 24 -4.4 96 96 N 3 6 29.87 1011 10 16 0.00 0.00
9:36 pm 21:36 Cloudy 25 -3.9 24 -4.4 96 96 N 3 6 29.90 1012 10 16 0.00 0.00
9:44 pm 21:44 Cloudy 25 -3.9 24 -4.4 96 96 Calm 29.90 1012 10 16 0.00 0.00
9:51 pm 21:51 Cloudy 25 -4 25 -4 100 100 Calm 29.90 1012 10 16 0.00 0.00
9:53 pm 21:53 Cloudy 25 -3.9 24 -4.4 96 96 Calm 29.86 1011 10 16 0.00 0.00
10:31 pm 22:31 Cloudy 23 -5 22 -5.6 96 96 Calm 29.92 1013 8 13 0.00 0.00
10:53 pm 22:53 Mostly Cloudy 24 -4.4 23 -5 96 96 Calm 29.87 1011 8 13 0.00 0.00
11:02 pm 23:02 Partly Cloudy with Mist and Fog 23 -5 22 -5.6 96 96 Calm 29.92 1013 6 10 0.00 0.00
11:27 pm 23:27 Mostly Clear with Mist and Fog 22 -5.6 21 -6.1 96 96 Calm 29.92 1013 2 3 0.00 0.00
11:33 pm 23:33 Mostly Clear with Mist and Fog 23 -5 22 -5.6 96 96 Calm 29.93 1013 1 1 0.00 0.00
11:45 pm 23:45 Partly Cloudy with Mist and Fog 23 -5 22 -5.6 96 96 Calm 29.93 1013 2 2 0.00 0.00
11:47 pm 23:47 Partly Cloudy with Mist and Fog 21 -6 21 -6 100 100 Calm 29.93 1014 4 6 0.00 0.00
11:53 pm 23:53 Partly Cloudy with Mist and Fog 21 -6.1 21 -6.1 100 100 WNW 3 6 29.88 1012 6 10 0.00 0.00

Powered by AerisWeather